Theta_e
312 311 311 311 316 317 316 317 316 316 316 315 317 319 320 319 323 323 320 320 321 321 320 320 320 319 317 317 319 320 323 324 321 321 322 320 322 324 325 321 324 324 327
309 308 309 311 313 312 313 313 314 314 314 314 315 317 318 319 318 321 322 323 320 320 320 319 318 320 317 320 323 320 323 326 322 319 318 319 319 315 314 314 318 325 327
308 307 307 306 307 308 311 313 313 313 314 314 314 313 315 318 318 320 322 324 323 323 322 322 319 318 319 321 324 324 324 325 321 317 315 313 311 311 312 312 314 315 322
306 305 304 304 305 305 307 308 310 312 313 313 313 314 315 317 319 316 317 319 317 318 321 321 317 321 320 319 323 323 320 318 313 311 309 307 306 307 309 308 307 309 313
305 304 304 305 305 306 306 307 307 309 310 312 313 313 313 315 317 314 313 315 317 320 319 322 320 323 323 324 325 318 316 313 310 307 305 304 302 303 304 307 306 308 310
305 305 305 305 306 305 305 305 305 307 308 310 311 312 312 314 309 307 309 313 317 316 315 318 322 320 321 315 315 314 315 311 307 304 301 299 301 305 306 306 306 305 305
304 304 305 305 305 304 303 303 301 301 303 304 307 310 310 310 305 303 305 313 312 315 315 317 317 323 320 322 313 311 309 308 309 305 302 303 304 307 307 306 306 306 307
304 304 305 305 304 303 301 300 299 298 298 300 303 306 308 310 304 302 303 310 311 313 315 316 316 316 319 317 314 312 310 307 306 307 306 307 309 309 311 309 307 306 305
302 303 304 304 303 302 300 299 298 298 297 298 300 302 306 309 304 301 302 308 311 312 315 316 316 316 303 301 311 308 306 307 307 304 305 303 302 302 307 308 304 301 301
300 301 301 301 300 299 299 297 297 296 297 299 299 300 302 307 304 300 301 310 311 313 315 316 307 313 301 303 309 310 307 307 311 310 308 306 302 304 302 307 304 302 301
298 299 299 299 299 299 299 298 297 298 298 298 299 298 298 301 306 300 299 307 310 311 312 313 314 304 300 300 304 309 308 310 310 310 309 308 307 307 308 306 306 306 304
295 295 295 296 296 297 297 298 298 299 298 297 296 296 299 300 301 300 298 298 306 311 312 314 314 305 301 297 299 300 298 302 310 309 308 308 306 305 305 307 307 308 310
292 292 292 294 294 295 294 296 297 298 297 296 296 295 296 298 300 299 298 296 299 306 310 309 305 301 298 299 299 298 299 306 310 307 307 308 307 307 306 306 307 308 309
290 290 291 291 293 293 294 296 297 297 296 296 296 296 296 298 297 299 301 301 298 299 301 303 303 303 302 305 305 304 305 308 311 312 308 311 306 305 305 305 305 305 307
289 289 289 291 292 293 294 294 295 296 296 296 296 297 295 295 297 296 297 297 295 296 297 299 302 303 306 307 307 307 305 307 309 309 306 305 305 305 305 305 305 305 306
287 288 288 290 290 292 293 294 294 293 293 293 292 294 297 295 294 294 294 293 292 293 296 296 297 302 306 308 309 309 306 305 307 306 306 305 306 305 305 305 305 305 305
287 287 288 289 289 289 290 290 290 293 293 293 292 292 291 293 292 293 292 291 291 293 294 294 294 296 301 306 308 309 307 307 307 307 307 306 306 305 303 305 305 306 307
287 288 287 288 288 288 289 289 290 290 290 291 293 292 292 291 291 291 291 291 293 294 296 294 295 296 298 302 306 307 307 307 307 306 306 306 305 306 305 305 306 306 308
286 286 287 287 288 288 289 289 290 289 289 290 291 291 292 291 290 290 290 294 294 294 295 295 296 298 297 300 305 307 308 307 308 307 307 307 307 306 305 306 305 296 301
287 288 288 288 288 288 288 288 288 289 289 289 289 289 291 289 290 291 292 293 293 295 296 295 296 299 297 299 302 306 306 305 305 307 307 308 307 307 306 306 308 310 310
289 291 289 289 288 289 289 289 290 289 289 289 289 290 288 289 289 290 291 293 294 295 296 297 296 298 300 299 301 303 304 305 305 306 307 309 308 308 310 311 312 313 314
294 295 295 294 294 294 294 295 294 293 292 291 291 291 286 290 291 292 293 293 294 295 297 297 296 297 300 301 303 302 304 305 306 308 306 305 307 308 309 311 312 313 314
292 292 292 292 292 291 292 293 293 293 295 297 296 292 290 290 291 292 294 295 295 295 297 297 297 297 301 301 306 306 306 306 307 307 307 308 309 309 311 312 313 313 315
289 289 289 288 288 289 289 289 290 290 292 295 296 295 293 293 293 294 295 297 296 297 297 297 297 297 298 302 304 306 306 307 309 306 307 307 307 305 310 311 313 315 316
287 287 287 286 286 286 286 287 287 288 289 290 293 296 295 295 294 295 297 298 297 297 298 299 297 297 298 302 305 306 299 290 304 298 309 309 310 311 312 313 314 316 314
285 285 285 285 284 285 284 285 285 285 286 287 289 291 294 296 297 297 298 298 298 298 299 296 297 299 300 301 302 297 291 290 297 291 306 308 309 311 313 314 315 315 312
Wind_Speed
5 2 2 3 1 2 2 2 3 3 3 3 3 3 5 6 9 8 10 10 8 8 8 11 12 10 8 6 7 9 11 10 15 4 4 2 1 4 3 2 4 5 5
4 2 2 1 0 3 4 5 4 5 5 5 3 3 4 5 6 9 11 10 12 13 13 10 10 8 12 11 9 10 7 6 7 7 2 3 4 2 2 1 3 3 4
6 6 5 4 4 6 6 6 7 6 6 6 5 4 5 5 5 6 7 10 11 13 13 14 14 8 8 6 7 9 12 12 6 4 4 2 1 1 1 2 3 3 3
5 5 5 6 7 7 7 7 7 6 6 7 7 6 5 5 3 2 4 7 9 9 10 11 11 13 12 10 10 8 7 9 6 5 3 2 2 1 1 2 4 2 3
6 6 7 7 8 8 7 7 7 7 7 7 8 8 6 6 6 5 5 5 5 9 11 11 8 17 21 14 8 8 7 6 6 4 3 3 3 2 2 2 2 3 4
6 8 8 7 8 8 7 7 6 5 6 6 8 11 9 7 10 10 7 6 5 3 6 6 6 19 18 12 11 16 14 9 6 5 3 4 4 4 3 2 1 1 3
7 8 8 8 9 8 8 7 7 6 5 5 6 7 12 9 12 12 13 7 6 5 3 7 10 12 16 15 13 14 11 12 10 8 6 6 5 6 5 3 3 1 2
11 12 13 13 13 11 9 9 8 6 7 7 4 6 8 9 14 14 15 7 6 7 4 0 1 10 12 12 9 8 7 7 8 6 7 7 6 6 6 4 1 1 3
9 10 10 10 11 10 10 9 7 6 6 6 6 7 10 10 13 14 11 6 6 6 3 6 5 2 3 7 10 9 7 6 6 6 7 8 9 6 4 4 2 2 4
8 8 7 7 8 10 10 9 6 6 7 6 8 8 10 11 13 13 11 6 7 5 4 4 7 9 6 11 7 6 1 4 5 4 4 4 4 4 7 6 4 2 3
13 13 13 12 13 13 12 10 8 9 9 10 12 9 8 11 12 13 14 8 7 4 5 3 8 12 13 12 9 7 6 1 5 4 2 3 1 5 5 4 5 5 4
14 15 14 13 11 12 15 15 15 16 16 13 8 7 8 8 13 13 12 16 10 6 5 3 11 19 16 6 5 8 9 5 1 4 4 5 4 4 5 5 7 6 6
15 15 14 15 14 13 14 15 13 11 8 9 9 9 8 7 8 15 14 15 16 5 5 9 12 11 13 13 19 11 10 5 4 4 5 6 7 6 4 2 4 6 7
16 16 15 15 15 13 11 10 10 9 8 9 10 9 8 7 6 7 7 6 8 8 3 4 6 7 9 9 3 6 5 7 8 8 8 8 3 4 3 3 2 1 2
15 15 15 12 13 12 12 9 9 12 10 9 8 8 8 8 7 8 6 4 5 6 5 3 2 3 4 4 3 5 4 5 8 6 5 4 4 3 3 3 3 2 2
14 12 10 9 9 10 10 10 14 16 17 18 16 12 8 9 6 10 11 11 11 11 4 4 2 4 6 7 7 6 4 7 6 5 5 4 5 5 4 3 3 3 3
14 13 11 12 10 10 10 10 12 9 14 15 17 16 15 14 9 11 11 9 7 5 2 4 3 2 2 4 6 6 6 5 4 5 5 6 6 5 5 4 3 3 3
15 22 12 11 10 10 10 10 9 10 10 9 10 11 12 15 14 15 14 9 2 2 3 3 4 3 2 3 4 5 5 4 5 5 5 5 5 5 4 4 4 4 4
13 11 10 9 9 11 10 10 9 10 10 10 8 10 12 14 12 13 15 8 7 5 5 4 4 3 3 3 4 5 5 6 6 5 6 6 6 5 5 4 4 5 3
12 18 15 9 9 8 8 9 9 9 10 9 8 8 7 7 8 8 8 9 9 8 7 6 6 6 4 4 4 5 5 5 5 6 6 7 5 4 4 4 4 4 5
9 9 9 7 7 8 7 8 8 8 9 8 9 7 8 7 7 8 8 9 9 9 9 8 6 7 6 4 5 4 5 5 5 6 6 6 4 4 5 4 4 4 4
8 8 7 6 6 6 6 6 6 7 8 8 7 6 9 8 6 6 7 8 9 10 9 9 9 7 8 7 4 4 6 7 5 5 5 4 4 3 3 2 3 3 4
8 9 8 8 8 9 8 8 8 8 8 7 1 4 4 5 5 6 6 8 8 9 11 13 11 10 9 7 5 6 6 6 6 6 6 4 3 1 1 1 3 4 4
10 10 10 9 9 9 9 9 9 10 10 9 5 3 3 4 5 5 5 5 7 7 9 10 10 10 8 6 5 4 4 5 4 6 6 3 1 2 2 3 4 5 5
10 10 10 9 10 9 9 10 10 10 10 9 8 3 2 3 4 4 4 4 5 5 8 9 8 9 9 10 8 6 4 5 6 7 5 3 2 5 4 4 4 3 4
11 11 10 9 10 10 10 10 10 10 10 10 9 8 7 2 2 3 3 4 3 3 4 5 6 9 10 9 9 7 6 6 5 5 4 3 3 4 3 6 9 6 10
Wind_Direction
128 129 78 14 33 167 207 261 285 289 300 304 297 317 312 303 305 271 251 248 231 215 205 203 211 195 203 191 196 223 238 205 234 246 260 269 346 232 257 279 274 274 260
184 138 146 143 301 308 293 279 240 267 286 270 270 266 277 277 291 294 268 254 233 231 231 231 213 190 206 201 200 179 269 220 216 220 236 248 196 216 227 243 310 311 297
171 175 185 213 233 250 258 270 284 282 273 273 272 270 286 290 289 311 279 281 265 250 246 242 238 213 221 207 186 194 184 210 174 144 206 236 169 41 358 299 268 294 322
184 187 221 242 244 242 244 251 257 275 278 286 284 274 266 278 267 304 335 320 262 256 258 242 223 222 208 215 224 204 199 173 141 148 158 145 89 286 238 251 313 310 315
223 223 230 227 233 238 241 244 252 256 267 262 275 272 259 256 269 239 244 266 311 282 261 251 230 235 219 208 203 172 176 165 146 138 134 148 198 163 179 247 268 304 311
236 238 237 235 234 240 246 251 257 266 275 283 288 286 275 266 268 233 229 238 241 252 302 306 315 263 242 226 201 167 178 146 148 146 159 169 187 194 165 202 235 324 11
250 251 247 241 235 226 225 220 220 211 206 250 260 281 282 268 255 242 238 240 233 245 224 331 344 262 216 215 193 176 168 151 152 156 161 184 179 193 165 181 221 171 189
252 251 249 245 239 234 226 227 224 208 209 216 240 259 265 270 256 247 246 232 250 270 264 128 190 290 223 179 161 161 169 166 173 166 174 177 202 177 173 155 155 39 319
284 278 277 272 263 252 244 234 223 218 218 212 212 242 264 266 258 250 252 236 228 228 277 287 283 263 95 25 155 166 172 205 208 192 198 198 191 179 153 92 312 72 327
304 301 301 300 296 287 273 259 242 228 231 229 244 241 249 261 258 247 239 232 231 213 202 274 257 227 228 125 101 80 330 242 182 168 229 285 247 225 177 197 142 212 235
288 288 287 283 277 274 270 259 248 250 248 252 255 249 246 250 253 242 245 229 221 195 194 242 284 241 206 185 177 170 186 132 242 222 184 227 174 200 203 192 191 191 207
295 292 288 285 282 282 281 280 278 272 262 255 235 246 251 242 235 245 228 221 219 185 196 190 237 230 261 197 184 229 216 145 143 185 194 213 211 219 226 220 223 224 222
294 290 288 282 275 272 274 272 267 253 239 250 251 251 244 244 240 237 231 212 227 196 193 204 227 243 219 216 206 184 160 133 189 181 210 214 209 205 212 235 249 252 248
293 288 284 280 278 273 269 270 267 258 254 255 253 246 246 248 240 240 242 236 215 207 194 228 225 217 214 220 238 154 192 179 202 208 214 219 176 161 208 182 243 272 283
292 291 289 290 292 288 275 264 257 261 257 253 255 252 244 241 235 240 238 186 175 175 151 154 184 191 198 196 213 205 169 170 205 204 202 202 195 172 218 192 220 212 209
290 289 284 284 285 281 284 280 252 251 255 257 250 244 254 244 245 236 249 201 171 160 102 128 143 203 205 190 195 192 172 198 197 169 193 193 208 199 211 219 206 204 244
287 287 285 276 270 271 272 269 275 259 249 249 252 247 231 239 213 185 166 157 141 91 118 147 164 199 254 211 195 188 185 208 181 171 186 204 205 204 197 222 226 218 261
287 285 281 279 277 274 269 270 270 270 267 261 243 239 243 223 207 196 187 179 175 188 194 212 183 206 254 284 209 188 186 179 194 189 182 204 201 200 203 212 214 223 232
288 284 279 276 271 270 271 270 263 262 260 261 256 242 239 219 199 201 185 206 212 201 197 204 198 195 237 275 260 219 181 183 200 181 199 205 208 193 215 210 210 216 200
289 280 271 268 272 270 265 262 261 259 256 253 250 244 227 204 215 216 214 215 215 215 200 201 213 216 211 243 269 236 198 193 191 184 193 204 209 182 210 209 192 197 199
294 288 276 267 268 270 267 265 261 259 258 254 250 238 212 202 206 200 201 204 205 204 202 199 203 212 213 220 248 225 208 196 183 196 190 187 159 179 201 187 198 208 212
322 336 329 312 304 307 308 297 287 275 266 254 246 226 191 203 209 208 201 193 194 201 200 192 197 205 220 223 254 261 190 183 171 165 151 155 154 148 177 194 225 223 216
346 352 352 354 353 348 353 351 347 343 336 337 259 170 170 190 198 209 195 199 190 189 193 196 190 201 212 212 227 218 186 161 160 131 131 133 109 102 141 253 247 237 200
358 1 1 360 3 360 1 356 352 353 353 357 34 85 140 171 181 191 223 185 181 189 193 193 187 197 204 197 220 221 190 153 139 124 128 122 138 225 205 238 256 222 199
5 6 5 5 7 6 3 6 2 359 0 1 3 21 95 144 167 194 224 162 176 179 189 179 187 201 202 193 197 199 170 178 147 121 113 114 262 279 275 263 234 177 143
8 9 13 10 11 9 10 8 6 2 1 360 358 2 2 334 195 156 147 160 164 178 198 158 178 195 193 202 207 198 167 135 120 130 142 154 231 259 252 231 177 158 142